SP5XSL-4 Weather Reports


Display with metric or nautical units.
time (UTC)temp
F
wind
direction
speed
MPH
gust
MPH
rain 1hr
in
rain 24hr
in
rain mn
in
humidity
%
barometer
mb
20260508054100 47 302 7.0 11.0 0.00 0.00 0.00 1023.0
20260508053139 47 257 9.0 11.0 0.00 0.00 0.00 1022.7
20260508052158 47 323 13.0 20.0 0.00 0.00 0.00 1022.9
20260508051218 47 83 9.0 11.0 0.00 0.00 0.00 1022.8
20260508050344 47 235 7.0 9.0 0.00 0.00 0.00 1022.8
20260508045422 47 292 11.0 16.0 0.00 0.00 0.00 1022.9
20260508044428 47 259 20.0 25.0 0.00 0.00 0.00 1023.0
20260508043548 47 334 13.0 16.0 0.00 0.00 0.00 1022.9
20260508042703 46 282 11.0 25.0 0.00 0.00 0.00 1022.9
20260508041819 46 289 13.0 16.0 0.00 0.00 0.00 1022.9
20260508040958 46 282 11.0 11.0 0.00 0.00 0.00 1022.8
20260508040112 46 285 11.0 16.0 0.00 0.00 0.00 1022.8
20260508035212 46 249 11.0 11.0 0.00 0.00 0.00 1022.7
20260508034259 46 277 11.0 11.0 0.00 0.00 0.00 1022.6
20260508033428 46 355 9.0 9.0 0.00 0.00 0.00 1022.6
20260508032542 46 36 7.0 11.0 0.00 0.00 0.00 1022.6
20260508031638 46 96 4.0 11.0 0.00 0.00 0.00 1022.4
20260508030748 46 287 9.0 9.0 0.00 0.00 0.00 1022.6
20260508025812 46 8 9.0 9.0 0.00 0.00 0.00 1022.4
20260508024942 46 186 4.0 9.0 0.00 0.00 0.00 1022.6
20260508024019 46 251 11.0 16.0 0.00 0.00 0.00 1022.4
20260508023152 46 245 11.0 11.0 0.00 0.00 0.00 1022.5
20260508022202 46 294 9.0 11.0 0.00 0.00 0.00 1022.7
20260508021158 46 195 4.0 4.0 0.00 0.00 0.00 1022.5
20260508020309 46 240 7.0 9.0 0.00 0.00 0.00 1022.4
20260508015342 46 186 7.0 9.0 0.00 0.00 0.00 1022.8
20260508014432 46 199 4.0 9.0 0.00 0.00 0.00 1022.5
20260508013602 46 7 11.0 16.0 0.00 0.00 0.00 1022.4
20260508012603 46 267 9.0 11.0 0.00 0.00 0.00 1022.4
20260508011645 46 132 7.0 9.0 0.00 0.00 0.00 1022.4
20260508010758 46 294 9.0 9.0 0.00 0.00 0.00 1022.4
20260508005822 46 186 7.0 9.0 0.00 0.00 0.00 1022.5
20260508004912 46 239 9.0 11.0 0.00 0.00 0.00 1022.5
20260508004052 46 139 7.0 9.0 0.00 0.00 0.00 1022.3
20260508003049 46 186 7.0 11.0 0.00 0.00 0.00 1022.3
20260508002113 46 280 9.0 16.0 0.00 0.00 0.00 1022.5
20260508001258 46 259 18.0 20.0 0.00 0.00 0.00 1022.3
20260508000434 46 271 9.0 16.0 0.00 0.00 0.00 1022.3
20260507235533 47 268 18.0 29.0 0.00 0.00 0.00 1022.3
20260507234639 47 269 11.0 16.0 0.00 0.00 0.00 1022.5
20260507233818 47 262 13.0 20.0 0.00 0.00 0.00 1022.4
20260507232808 47 185 18.0 25.0 0.00 0.00 0.00 1022.6
20260507231829 47 320 13.0 16.0 0.00 0.00 0.00 1022.1
20260507231012 47 336 13.0 16.0 0.00 0.00 0.00 1022.3
20260507230112 48 219 9.0 11.0 0.00 0.00 0.00 1022.4
20260507225243 48 65 16.0 20.0 0.00 0.00 0.00 1022.4
20260507224300 48 269 20.0 25.0 0.00 0.00 0.00 1022.2
20260507223310 48 41 11.0 16.0 0.00 0.00 0.00 1022.2
20260507222350 48 289 20.0 25.0 0.00 0.00 0.00 1022.0
20260507221502 48 281 18.0 29.0 0.00 0.00 0.00 1022.4
20260507220628 48 230 9.0 9.0 0.00 0.00 0.00 1022.2
20260507215733 48 319 13.0 16.0 0.00 0.00 0.00 1022.3
20260507214819 48 121 2.0 4.0 0.00 0.00 0.00 1022.0
20260507213938 48 263 20.0 25.0 0.00 0.00 0.00 1022.2
20260507213042 49 63 13.0 16.0 0.00 0.00 0.00 1022.1
20260507212103 49 179 4.0 4.0 0.00 0.00 0.00 1022.0
20260507211200 49 192 9.0 11.0 0.00 0.00 0.00 1021.7
20260507210332 49 132 7.0 9.0 0.00 0.00 0.00 1021.9
20260507205333 49 223 11.0 16.0 0.00 0.00 0.00 1021.9
20260507204412 49 113 9.0 11.0 0.00 0.00 0.00 1021.8
20260507203443 49 168 2.0 4.0 0.00 0.00 0.00 1021.8
20260507202612 49 193 9.0 11.0 0.00 0.00 0.00 1021.9
20260507201618 49 133 7.0 9.0 0.00 0.00 0.00 1021.7
20260507200719 49 228 13.0 16.0 0.00 0.00 0.00 1021.7
20260507195902 49 42 9.0 11.0 0.00 0.00 0.00 1021.5
20260507195032 49 164 13.0 20.0 0.00 0.00 0.00 1021.2
20260507194142 49 93 16.0 20.0 0.00 0.00 0.00 1021.4
20260507193138 49 333 22.0 29.0 0.00 0.00 0.00 1021.1
20260507192306 49 207 11.0 11.0 0.00 0.00 0.00 1021.1
20260507191442 49 321 18.0 20.0 0.00 0.00 0.00 1021.1
20260507190642 49 29 16.0 20.0 0.00 0.00 0.00 1021.3
20260507185758 49 323 16.0 20.0 0.00 0.00 0.00 1021.0
20260507184812 49 333 20.0 29.0 0.00 0.00 0.00 1021.1
20260507183903 50 39 27.0 38.0 0.00 0.00 0.00 1020.7
20260507182949 50 113 18.0 25.0 0.00 0.00 0.00 1020.8
20260507182055 50 207 18.0 25.0 0.00 0.00 0.00 1020.5
20260507181059 50 129 7.0 9.0 0.00 0.00 0.00 1020.5
20260507180052 50 246 20.0 25.0 0.00 0.00 0.00 1020.4
20260507175208 50 125 7.0 11.0 0.00 0.00 0.00 1020.0
20260507174332 50 219 18.0 25.0 0.00 0.00 0.00 1020.0
20260507173408 50 347 7.0 11.0 0.00 0.00 0.00 1019.8
20260507172543 51 279 11.0 20.0 0.00 0.00 0.00 1019.7
20260507171549 51 352 18.0 25.0 0.00 0.00 0.00 1019.6
20260507170712 51 284 13.0 16.0 0.00 0.00 0.00 1019.8
20260507165822 51 238 13.0 20.0 0.00 0.00 0.00 1019.5
20260507164752 51 283 9.0 11.0 0.00 0.00 0.00 1019.8
20260507163852 51 189 7.0 9.0 0.00 0.00 0.00 1019.5
20260507162849 51 327 18.0 25.0 0.00 0.00 0.00 1019.7
20260507161903 52 12 9.0 11.0 0.00 0.00 0.00 1019.9
20260507160953 52 298 11.0 16.0 0.00 0.00 0.00 1019.6
20260507155952 52 334 9.0 11.0 0.00 0.00 0.00 1019.8
20260507154953 52 286 11.0 16.0 0.00 0.00 0.00 1019.6
20260507154022 52 322 34.0 40.0 0.00 0.00 0.00 1019.7
20260507153019 53 221 22.0 38.0 0.00 0.00 0.00 1019.7
20260507152039 53 321 18.0 25.0 0.00 0.00 0.00 1019.5
20260507151158 53 252 20.0 34.0 0.00 0.00 0.00 1019.6
20260507150125 53 96 7.0 9.0 0.00 0.00 0.00 1019.4
20260507145252 53 123 2.0 4.0 0.00 0.00 0.00 1019.4
20260507144318 52 232 9.0 11.0 0.00 0.00 0.00 1019.3
20260507143432 52 92 7.0 9.0 0.00 0.00 0.00 1019.4
20260507142608 52 228 9.0 11.0 0.00 0.00 0.00 1019.2
20260507141802 53 114 2.0 4.0 0.00 0.00 0.00 1019.5
20260507140732 53 306 9.0 16.0 0.00 0.00 0.00 1019.3
20260507135740 52 206 4.0 9.0 0.00 0.00 0.00 1019.4
20260507134822 53 287 11.0 11.0 0.00 0.00 0.00 1019.4
20260507133830 52 180 9.0 16.0 0.00 0.00 0.00 1019.2
20260507133012 53 338 13.0 16.0 0.00 0.00 0.00 1019.3
20260507132139 53 149 9.0 9.0 0.00 0.00 0.00 1019.2
20260507131110 53 333 7.0 11.0 0.00 0.00 0.00 1019.0
20260507130120 53 137 2.0 9.0 0.00 0.00 0.00 1019.3
20260507125112 53 271 9.0 9.0 0.00 0.00 0.00 1019.1
20260507124159 53 321 7.0 11.0 0.00 0.00 0.00 1018.8
20260507123202 53 121 0.0 0.0 0.00 0.00 0.00 1018.8
20260507122306 54 136 0.0 4.0 0.00 0.00 0.00 1018.5
20260507121352 53 113 4.0 4.0 0.00 0.00 0.00 1018.7
20260507120338 53 129 4.0 4.0 0.00 0.00 0.00 1018.7
20260507115513 52 246 9.0 11.0 0.00 0.00 0.00 1018.4
20260507114602 53 188 11.0 16.0 0.00 0.00 0.00 1018.3
20260507113639 53 154 2.0 4.0 0.00 0.00 0.00 1018.1
20260507112809 53 238 11.0 11.0 0.00 0.00 0.00 1018.1
20260507111944 53 273 9.0 16.0 0.00 0.00 0.00 1018.1
20260507110240 53 196 7.0 9.0 0.00 0.00 0.00 1018.1
20260507105257 52 315 13.0 20.0 0.00 0.00 0.00 1018.2
20260507104340 52 222 7.0 11.0 0.00 0.00 0.00 1018.1
20260507103430 52 293 7.0 9.0 0.00 0.00 0.00 1017.7
20260507102430 51 336 9.0 11.0 0.00 0.00 0.00 1017.7
20260507101405 51 294 7.0 9.0 0.00 0.00 0.00 1017.7
20260507100410 51 214 7.0 9.0 0.00 0.00 0.00 1017.8
20260507095540 51 241 7.0 9.0 0.00 0.00 0.00 1017.6
20260507094708 51 124 2.0 4.0 0.00 0.00 0.00 1017.4
20260507093847 50 201 9.0 11.0 0.00 0.00 0.00 1017.5
20260507092945 50 299 7.0 9.0 0.00 0.00 0.00 1017.4
20260507092107 50 166 7.0 9.0 0.00 0.00 0.00 1017.0
20260507091046 50 324 9.0 9.0 0.00 0.00 0.00 1017.1
20260507090127 50 298 9.0 20.0 0.00 0.00 0.00 1016.9
20260507085300 50 332 4.0 9.0 0.00 0.00 0.00 1016.6
20260507084400 50 303 11.0 11.0 0.00 0.00 0.00 1016.6
20260507083448 51 97 4.0 4.0 0.00 0.00 0.00 1016.8
20260507082447 51 184 11.0 16.0 0.00 0.00 0.00 1016.7
20260507081518 51 136 0.0 4.0 0.00 0.00 0.00 1016.4
20260507080620 50 190 7.0 11.0 0.00 0.00 0.00 1016.2
20260507075650 50 215 9.0 11.0 0.00 0.00 0.00 1016.3
20260507074808 50 283 16.0 25.0 0.00 0.00 0.00 1015.9
20260507073828 50 291 9.0 11.0 0.00 0.00 0.00 1016.2
20260507072907 49 266 7.0 11.0 0.00 0.00 0.00 1016.1
20260507071917 49 88 7.0 9.0 0.00 0.00 0.00 1016.1
20260507071027 49 319 11.0 11.0 0.00 0.00 0.00 1015.5
20260507070128 48 190 7.0 11.0 0.00 0.00 0.00 1015.6
20260507065100 48 336 4.0 9.0 0.00 0.00 0.00 1015.5
20260507064250 48 275 13.0 20.0 0.00 0.00 0.00 1015.6
20260507063326 48 262 4.0 9.0 0.00 0.00 0.00 1015.6
20260507062448 48 131 0.0 0.0 0.00 0.00 0.00 1015.5
20260507061548 48 327 9.0 11.0 0.00 0.00 0.00 1015.1
20260507060643 48 244 7.0 9.0 0.00 0.00 0.00 1015.1
20260507055646 47 322 11.0 11.0 0.00 0.00 0.00 1015.1